Location: Carlisle
(34.5501°N, 84.5969°W)
Time: 00:28:02
(UTC+00:00)

CAS-4A - Visible Passes

Search period start: 31 March 2023 00:00
Search period end: 10 April 2023 00:00
Orbit: 509 x 526 km, 43.0° (Epoch: 30 March)

Date Brightness Start Highest point End Pass type
(mag) Time Alt. Az. Time Alt. Az. Time Alt. Az.
31 Mar ? 09:05:27 31° NE 09:05:27 31° NE 09:07:41 10° ENE visible
31 Mar ? 10:40:32 10° WNW 10:43:55 25° N 10:47:20 10° NE visible
01 Apr ? 08:49:44 22° NE 08:49:44 22° NE 08:51:17 10° NE visible
01 Apr ? 10:24:41 12° WNW 10:27:37 25° N 10:30:58 10° NE visible
02 Apr ? 08:33:58 16° NE 08:33:58 16° NE 08:34:51 10° NE visible
02 Apr ? 10:08:55 15° NW 10:11:18 24° N 10:14:36 10° NE visible
03 Apr ? 08:18:10 11° NE 08:18:10 11° NE 08:18:25 10° NE visible
03 Apr ? 09:53:07 17° NW 09:54:57 24° N 09:58:14 10° NE visible
04 Apr ? 09:37:17 20° NNW 09:38:34 23° N 09:41:50 10° NE visible
05 Apr ? 09:21:28 22° NNW 09:22:10 23° N 09:25:25 10° NE visible
06 Apr ? 09:05:40 23° N 09:05:45 23° N 09:09:01 10° ENE visible
06 Apr ? 10:42:17 10° NW 10:46:06 42° NNE 10:49:56 10° E visible
07 Apr ? 08:49:55 23° NNE 08:49:55 23° NNE 08:52:35 10° ENE visible
07 Apr ? 10:25:44 10° NW 10:29:36 47° NNE 10:33:29 10° E visible
08 Apr ? 08:34:13 20° NE 08:34:13 20° NE 08:36:07 10° ENE visible
08 Apr ? 10:09:10 10° NW 10:13:04 53° NNE 10:16:59 10° E visible
09 Apr ? 08:18:37 15° NE 08:18:37 15° NE 08:19:38 10° ENE visible
09 Apr ? 09:53:35 17° NW 09:56:30 60° NNE 10:00:28 10° ESE visible
